Home > Weather > Matamoros > Past weeks

Flag for Mexico Past Weather in Matamoros, Tamaulipas, Mexico — Yesterday and Last 2 Weeks

Now
80 °F

Clear.


Feels Like: 85 °F
Forecast: 75 / 93 °F
Wind: No wind

Location: Brownsville / South Padre Island International Airport

Current Time: Aug 29, 2016 at 12:52:16 AM

Latest Report: Aug 28, 2016 at 11:53 PM


Visibility: 10 mi

Pressure: 29.93 "Hg

Humidity: 85%

Dew Point: 75 °F

Location of MatamorosLocation

Past Weather in Matamoros — Graph

°F

Matamoros Temperature Yesterday

Maximum temperature yesterday: 96 °F (at 1:53 PM)
Minimum temperature yesterday: 75 °F (at 5:53 AM)
Average temperature yesterday: 84 °F

High & Low Weather Summary for the Past Weeks

 TemperatureHumidityPressure
High96 °F (Aug 14, 3:53 PM)100% (Aug 18, 6:53 AM)30.13 "Hg (Aug 18, 6:53 AM)
Low75 °F (Aug 16, 7:53 AM)41% (Aug 23, 12:53 PM)29.78 "Hg (Aug 20, 6:53 PM)
Average85 °F75%29.95 "Hg
* Reported Aug 13 10:53 PM — Aug 28 10:53 PM, Matamoros, Weather by CustomWeather, © 2016

Note: Actual official high and low records may vary slightly from our data, if they occured in-between our weather recording intervals... More about our weather records

Advertising

Matamoros Weather History for the Previous 24 Hours

Scroll right to see more
 ConditionsComfort  
Time TempWeatherWind HumidityBarometerVisibility
10:53 PM
Sun, Aug 28
81 °FClear.No wind82%29.92 "Hg10 mi
9:53 PM82 °FClear.3 mph79%29.90 "Hg10 mi
8:53 PM83 °FClear.8 mph79%29.88 "Hg10 mi
7:53 PM84 °FSunny.12 mph74%29.86 "Hg10 mi
6:53 PM88 °FSunny.12 mph61%29.85 "Hg10 mi
5:53 PM91 °FSunny.16 mph54%29.86 "Hg10 mi
4:53 PM93 °FSunny.15 mph47%29.85 "Hg10 mi
3:53 PM95 °FSunny.13 mph43%29.86 "Hg10 mi
2:53 PM96 °FSunny.14 mph49%29.89 "Hg10 mi
1:53 PM96 °FScattered clouds.10 mph51%29.91 "Hg10 mi
12:53 PM95 °FPassing clouds.No wind46%29.93 "Hg10 mi
11:53 AM91 °FPartly sunny.5 mph54%29.95 "Hg10 mi
10:53 AM88 °FScattered clouds.5 mph63%29.96 "Hg10 mi
9:53 AM86 °FSunny.No wind72%29.95 "Hg10 mi
8:53 AM83 °FSunny.No wind82%29.95 "Hg10 mi
7:53 AM76 °FClear.No wind100%29.94 "Hg10 mi
6:53 AM75 °FClear.No wind96%29.93 "Hg10 mi
5:53 AM75 °FClear.No wind96%29.92 "Hg10 mi
4:53 AM76 °FClear.No wind97%29.92 "Hg10 mi
3:53 AM77 °FClear.No wind94%29.92 "Hg10 mi
2:53 AM77 °FClear.No wind94%29.93 "Hg10 mi
1:53 AM77 °FClear.3 mph90%29.93 "Hg10 mi
12:53 AM78 °FClear.No wind90%29.96 "Hg10 mi
Weather by CustomWeather, © 2016

See weather overviewHow to use our weather pages